Location: ?ejkovice
(49.0137°N, 14.3821°E)
Time: 16:57:14
(UTC+00:00)

Cosmos 2082 Rocket - Pass Details

Date: 23 May 2024
Orbit: 832 x 853 km, 71.0° (Epoch: 12 June)

Event Time Altitude Azimuth Distance (km) Brightness Sun altitude
Exits shadow 01:48:52 - 261° (W) 2,894 4.5 -10.8°
Reaches altitude 10° 01:50:16 10° 269° (W) 2,486 4.3 -10.6°
Maximum altitude 01:54:38 22° 319° (NW) 1,784 4.0 -10.2°
Drops below altitude 10° 01:59:02 10° 10° (N) 2,492 5.6 -9.7°
Sets 02:02:05 0° 25° (NNE) 3,429 7.0 -9.3°
